| Station | Date | Time | Temp (°F) | RH (%) | Dew Pt (°F) | Wind Spd (mph) | Wind Dir (°) | Wind Gust (mph) | Latest Rain (In) | Daily Rain (In) | Daily Max Temp (°F) | Daily Min Temp (°F) |
|---|---|---|---|---|---|---|---|---|---|---|---|---|
| Bavarian Lion EFW | 5/4/26 | 0745 | 51.4 1.6 | - | - | - | - | - | 0.00 | 0.00 | 52.2 1.4 | 46.8 5.1 |
| Rockpile Lower (Cooley) | 5/4/26 | 0730 | 50.1 0.5 | 84 12 | 45.6 3.1 | 3.5 1.6 | WNW | 282 | 6.7 2.8 | 0.00 | 0.00 | 51.4 0.2 | 48.7 0.7 |
| Rockpile Upper (Cooley) | 5/4/26 | 0745 | 46.7 0.4 | 92 8 | 44.6 2.5 | 5.4 2.2 | NNW | 332 | 9.0 2.4 | 0.00 | 0.00 | 47.6 0.8 | 45.5 1.2 |
| Lower Dry Creek Valley | 5/4/26 | 0745 | 54.9 1.0 | 79 10 | 48.5 2.3 | 0.4 1.0 | ESE | 113 | 2.0 4.6 | 0.00 | 0.00 | 55.6 1.0 | 48.5 4.8 |
| Geyserville-South (Nervo Station) | 5/4/26 | 0745 | 56.0 3.4 | - | - | 1.0 0.4 | ESE | 104 | 4.1 1.0 | 0.00 | 0.00 | 56.7 3.1 | 50.2 1.7 |
| Franz Valley (Stornetta) | 5/4/26 | 0745 | 48.7 4.0 | 94 10 | 47.1 0.8 | 0.2 0.8 | SE | 124 | 1.0 2.3 | 0.00 | 0.00 | 49.6 3.3 | 45.8 5.9 |
| Geyserville (Ranch 3) | 5/4/26 | 0745 | 55.1 2.0 | 79 20 | 48.9 4.2 | 0.4 2.2 | NE | 54 | 2.1 3.1 | 0.00 | 0.00 | 55.6 0.6 | 51.6 1.2 |
| Geyserville-North (Hoffman) | 5/4/26 | 0745 | 54.8 1.4 | 83 10 | 49.9 1.5 | 0.5 2.3 | NNW | 347 | 2.3 3.1 | 0.00 | 0.00 | 55.8 0.7 | 50.9 2.2 |
| Knights Valley (Bavarian Lion) | 5/4/26 | 0745 | 51.2 1.0 | 89 1 | 48.0 0.6 | 0.9 0.3 | SW | 228 | 2.5 0.7 | 0.00 | 0.00 | 51.6 0.9 | 46.8 4.8 |
| HWY 128/Chalk Hill Rd (Landslide) | 5/4/26 | 0700 | 50.9 2.2 | 94 4 | 49.4 0.9 | 0.0 0.6 | SW | 235 | 0.8 1.4 | 0.00 | 0.00 | 54.3 0.5 | 50.5 2.5 |
| Newman Knights Valley | 5/4/26 | 0745 | 52.1 1.1 | 83 1 | 47.1 1.4 | 3.1 1.7 | SSW | 193 | 5.7 2.9 | 0.00 | 0.00 | 53.8 0.3 | 50.6 1.9 |
| Jimtown-North (Piccolo Ranch 15) | 5/4/26 | 0745 | 53.3 0.1 | 88 0 | 49.8 0.1 | 0.7 0.9 | SW | 223 | 2.9 1.8 | 0.00 | 0.00 | 54.6 0.3 | 50.9 1.8 |
| Peterson (Ranch 09) | 5/4/26 | 0745 | 52.3 0.3 | 86 5 | 48.3 1.8 | 2.5 0.3 | S | 174 | 4.6 0.2 | 0.00 | 0.00 | 54.2 0.5 | 49.8 2.3 |
| Cloverdale-SE (Ranch 38) | 5/4/26 | 0745 | 50.6 1.1 | 96 1 | 49.4 1.4 | 2.1 3.3 | S | 172 | 3.1 4.6 | 0.00 | 0.00 | 53.8 1.0 | 49.5 1.4 |
| Geyserville-East (Ranch 40) | 5/4/26 | 0730 | 50.3 0.1 | 96 3 | 49.1 0.8 | 1.2 4.7 | S | 184 | 2.1 6.5 | 0.00 | 0.00 | 52.1 0.5 | 49.2 0.8 |
| N Chalk Hill Rd (Ranch 63) | 5/4/26 | 0745 | 53.6 1.7 | 82 5 | 48.4 0.1 | 0.6 1.5 | ESE | 112 | 2.4 1.8 | 0.00 | 0.00 | 55.1 2.1 | 49.1 2.1 |
| Cloverdale-East (Ranch 83) | 5/4/26 | 0745 | 52.2 1.5 | - | - | 1.1 1.8 | S | 180 | 2.5 3.7 | 0.00 | 0.00 | 56.2 1.4 | 50.9 1.9 |
| Crazy Creek Ranch | 5/4/26 | 0745 | 53.1 0.2 | 91 2 | 50.6 0.8 | 0.7 1.2 | SSW | 200 | 2.1 2.4 | 0.00 | 0.00 | 54.5 0.1 | 51.6 0.7 |
| Lytton East (Hill 5) | 5/4/26 | 0745 | 52.5 0.1 | 90 1 | 49.6 0.2 | 1.7 2.7 | SSW | 195 | 3.4 3.4 | 0.00 | 0.00 | 53.4 0.3 | 49.2 2.8 |
| Lytton East (Shop Hill Bottom) | 5/4/26 | 0745 | 52.7 0.0 | 88 1 | 49.1 0.5 | 1.0 2.3 | SSW | 201 | 2.4 3.9 | 0.00 | 0.00 | 53.9 0.3 | 48.4 3.7 |
| Lytton West Hill (23PS) | 5/4/26 | 0745 | 53.1 0.1 | 86 3 | 49.2 1.1 | 0.9 1.8 | SSW | 207 | 2.7 4.1 | 0.00 | 0.00 | 55.0 1.0 | 49.1 3.5 |
| Lytton West Lower (Lew 6) | 5/4/26 | 0745 | 52.8 0.3 | 87 1 | 49.2 0.6 | 1.0 1.1 | S | 176 | 2.4 1.9 | 0.00 | 0.00 | 54.1 0.3 | 47.5 4.9 |
| Whitton Ranch (201e) | 5/4/26 | 0745 | 54.5 1.5 | 83 12 | 49.5 2.0 | 1.3 0.6 | ESE | 116 | 2.7 0.8 | 0.00 | 0.00 | 55.6 1.7 | 49.8 2.6 |
| Upper Dry Creek Valley | 5/4/26 | 0700 | 50.1 3.4 | 94 4 | 48.5 2.1 | 0.0 2.6 | ESE | 108 | 0.7 5.3 | 0.00 | 0.00 | 55.1 0.5 | 48.2 5.0 |
| Big River | 5/4/26 | 0745 | 51.7 1.6 | 92 2 | 49.5 0.8 | 1.3 0.5 | SE | 144 | 2.6 2.8 | 0.00 | 0.00 | 53.8 0.2 | 48.9 3.4 |
| Max | 56.0 | 96 | 50.6 | 5.4 | - | 9.0 | 0.00 | 0.00 | 56.7 | 51.6 | ||
| Avg | 52.2 | 88 | 48.6 | 1.3 | - | 3.0 | 0.00 | - | - | - | ||
| Min | 46.7 | 79 | 44.6 | 0.0 | - | 0.7 | 0.00 | 0.00 | 47.6 | 45.5 |
| Station | Date | Time | Temp (°F) | RH (%) | Dew Pt (°F) | Wind Spd (mph) | Wind Dir (°) | Wind Gust (mph) | Latest Rain (In) | Daily Rain (In) | Daily Max Temp (°F) | Daily Min Temp (°F) |
|---|---|---|---|---|---|---|---|---|---|---|---|---|
| Windsor-NW (Ranch 8) | 5/4/26 | 0745 | 50.4 3.7 | 86 3 | 46.4 2.6 | 1.0 0.4 | SSE | 152 | 3.3 1.3 | 0.00 | 0.00 | 52.5 1.6 | 48.6 4.1 |
| Windsor-East (Ranch 16) | 5/4/26 | 0745 | 51.3 2.5 | 92 7 | 49.2 0.4 | 1.0 2.1 | S | 182 | 2.9 2.3 | 0.00 | 0.00 | 51.7 2.3 | 46.6 6.4 |
| Mark West-North (Ranch 14) | 5/4/26 | 0745 | 50.2 3.2 | 93 6 | 48.2 1.3 | 1.4 0.8 | NNW | 328 | 3.1 1.5 | 0.00 | 0.00 | 52.8 1.1 | 47.8 5.1 |
| Windsor-SE (Silk Rd) | 5/4/26 | 0745 | 49.5 4.5 | 100 12 | 49.4 1.0 | 0.8 1.1 | SSW | 212 | 3.0 1.1 | 0.00 | 0.00 | 50.9 3.4 | 46.0 7.3 |
| Fulton-NW (Ranch 5) | 5/4/26 | 0745 | 49.6 4.0 | 3 86 | -28.3 78.7 | 1.5 1.1 | SE | 129 | 3.5 1.3 | 0.00 | 0.00 | 50.4 3.6 | 46.7 6.4 |
| Bisordi (Fulton) | 5/4/26 | 0745 | 49.7 4.2 | 96 8 | 48.6 1.9 | 1.5 0.2 | SSE | 163 | 3.7 0.5 | 0.00 | 0.00 | 51.2 2.9 | 46.4 7.0 |
| Windsor-South (Laughlin Rd) | 2/28/26 | 0515 | 55.4 5.1 | 92 7 | 53.2 3.1 | - | - | - | 0.00 | 0.00 | 61.9 7.4 | 55.2 5.6 |
| Fulton-SE (Barnes Rd) | 5/4/26 | 0745 | 50.3 3.8 | 94 8 | 48.7 1.3 | 0.0 1.9 | N | 0 | 0.0 5.3 | 0.00 | 0.00 | 52.5 2.2 | 46.7 7.0 |
| Fulton-SW (Ranch 21) | 5/4/26 | 0730 | 48.1 5.0 | 0 88 | -62.7 112.6 | 1.6 2.4 | SW | 230 | 2.8 3.2 | 0.00 | 0.00 | 49.8 3.7 | 47.4 5.3 |
| NW Santa Rosa (Piner Road) | 5/4/26 | 0745 | 48.3 5.1 | 100 0 | 48.3 5.1 | 1.2 0.8 | SE | 143 | 2.7 1.4 | 0.00 | 0.00 | 50.1 3.5 | 46.6 6.2 |
| River Rd South (Denner Ranch) | 5/4/26 | 0745 | 48.9 4.5 | 0 0 | -68.2 2.6 | 1.0 2.3 | SE | 128 | 3.1 2.0 | - | - | 49.7 4.1 | 45.1 7.4 |
| West Santa Rosa (LOV Vineyard) | 5/4/26 | 0745 | 48.2 5.3 | 100 13 | 48.2 1.6 | 0.9 1.6 | SSE | 168 | 2.3 3.3 | 0.00 | 0.00 | 49.6 4.4 | 46.4 6.7 |
| Guerneville Rd (Prokopakis) | 5/4/26 | 0745 | 49.8 4.9 | 98 12 | 49.2 1.3 | - | - | - | 0.00 | 0.00 | 50.7 4.1 | 46.7 7.0 |
| SunnyView Vineyard (SCWC) | 5/4/26 | 0745 | 47.4 5.8 | 100 13 | 47.4 2.0 | 0.6 0.7 | SSE | 162 | 2.2 1.6 | 0.00 | 0.00 | 48.1 5.3 | 43.9 8.7 |
| Guerneville Rd West (Balletto) | 5/4/26 | 0745 | 48.6 5.1 | 99 8 | 48.3 2.6 | 0.7 1.7 | ESE | 116 | 2.5 2.4 | 0.00 | 0.00 | 49.6 4.7 | 45.2 8.0 |
| Sanchietti Ranch | 5/4/26 | 0745 | 49.1 5.8 | 97 10 | 48.2 2.9 | 1.1 0.4 | ESE | 106 | 2.2 1.8 | 0.00 | 0.00 | 49.9 5.0 | 47.2 6.8 |
| Occidental Rd (Sebastopol) | 5/4/26 | 0745 | 48.4 5.1 | 100 0 | 48.4 5.1 | 1.3 0.3 | E | 94 | 2.2 2.2 | 0.00 | 0.00 | 48.8 4.8 | 44.2 8.2 |
| Harper's Rest (Windsor-West) | 5/4/26 | 0745 | 51.4 1.4 | 92 4 | 49.1 0.3 | 1.9 0.9 | ENE | 74 | 3.1 0.2 | 0.00 | 0.00 | 52.1 1.0 | 44.8 7.1 |
| Lower Westside Rd (Ranch 12) | 5/4/26 | 0745 | 48.8 5.3 | 96 8 | 47.7 3.0 | 0.0 0.6 | N | 0 | 0.0 2.1 | 0.00 | 0.00 | 53.1 1.4 | 45.8 7.1 |
| Guerneville (Laughlin Rd) | 5/4/26 | 0745 | 52.7 1.1 | 87 2 | 49.0 0.5 | 0.3 1.4 | NNW | 328 | 1.8 1.6 | 0.00 | 0.00 | 52.9 1.3 | 46.9 6.2 |
| Korbel (Winery) | 5/4/26 | 0745 | 54.2 0.1 | 84 2 | 49.3 0.7 | 0.4 0.4 | N | 7 | 1.9 1.9 | 0.00 | 0.00 | 54.2 0.4 | 48.3 5.4 |
| Forestville (Shone Farms) | 5/4/26 | 0745 | 51.8 2.3 | 92 4 | 49.5 1.0 | 0.4 0.4 | SW | 214 | 1.9 1.3 | 0.00 | 0.00 | 54.2 1.2 | 45.7 5.6 |
| Forestville-NE (Ranch 30) | 5/4/26 | 0745 | 50.2 3.6 | 97 7 | 49.3 1.6 | 0.4 0.9 | NNE | 18 | 1.3 1.8 | 0.00 | 0.00 | 50.2 3.7 | 44.6 7.9 |
| Foggy Bend (Ranch 41) | 5/4/26 | 0745 | 49.1 5.5 | 96 8 | 48.2 2.9 | 0.2 1.2 | WNW | 295 | 1.6 1.5 | 0.00 | 0.00 | 51.8 3.1 | 46.0 7.7 |
| Last Stop | 5/4/26 | 0745 | 50.2 3.7 | 98 12 | 49.7 0.1 | 0.9 0.3 | ESE | 110 | 2.4 1.9 | 0.00 | 0.00 | 50.4 3.5 | 43.2 9.8 |
| Green Valley Vineyard | 5/4/26 | 0745 | 51.8 1.1 | 92 7 | 49.6 1.0 | 0.6 1.5 | ENE | 74 | 2.6 2.6 | 0.00 | 0.00 | 52.4 0.7 | 44.3 7.9 |
| Park Royal | 5/4/26 | 0745 | 47.4 6.1 | 99 13 | 47.2 2.3 | - | - | - | 0.00 | 0.00 | 49.7 3.9 | 45.7 7.2 |
| Merino | 5/4/26 | 0745 | 47.8 5.8 | 100 9 | 47.8 3.3 | 0.9 2.1 | SSE | 164 | 2.1 3.6 | 0.00 | 0.00 | 48.3 5.4 | 45.0 7.8 |
| Green Valley (Sanchietti) | 5/4/26 | 0745 | 51.5 2.9 | - | - | - | - | - | - | - | 52.1 2.6 | 43.2 10.4 |
| Keefer Ranch (Green Valley) | 5/4/26 | 0745 | 49.0 4.9 | 97 13 | 48.4 1.0 | - | - | - | 0.00 | 0.00 | 49.0 5.0 | 43.7 9.8 |
| Graton-West (Dutton Ranch) | 5/4/26 | 0745 | 51.2 3.0 | 100 0 | 51.2 3.0 | 0.9 0.6 | NNE | 21 | 2.2 1.7 | 0.00 | 0.00 | 51.6 2.9 | 44.4 9.0 |
| Graton-South (Mill Station Rd) | 5/4/26 | 0745 | 48.0 5.1 | 98 11 | 47.6 1.8 | 0.0 0.6 | N | 0 | 0.0 4.6 | 0.00 | 0.00 | 49.0 4.6 | 42.5 9.6 |
| Occidental (Horseshoe Bend) | 5/4/26 | 0745 | 51.1 0.1 | 89 3 | 48.1 0.9 | - | - | - | 0.00 | 0.00 | 51.5 0.2 | 46.3 3.9 |
| Sexton Valley (Jacqueline's Blk) | 5/4/26 | 0745 | 51.4 1.6 | 99 9 | 51.2 0.9 | 0.3 1.7 | ENE | 68 | 1.3 3.3 | 0.00 | 0.00 | 53.0 0.5 | 43.7 8.8 |
| Sebastopol Hills (Burnside Rd) | 5/4/26 | 0745 | 49.9 1.2 | 100 4 | 49.9 0.1 | 2.7 1.3 | SSW | 212 | 5.1 1.0 | 0.00 | 0.00 | 50.2 1.5 | 47.8 2.9 |
| Pleasant Hill | 5/4/26 | 0745 | 50.7 1.6 | 97 10 | 49.9 1.3 | 1.7 2.1 | SW | 229 | 3.5 4.3 | 0.00 | 0.00 | 50.8 1.5 | 44.7 6.6 |
| Seaview/Fort Ross (Hirsch) | 5/4/26 | 0745 | 49.8 3.1 | 88 10 | 46.2 0.3 | 2.1 0.7 | NNW | 340 | 5.0 1.9 | 0.00 | 0.00 | 49.8 1.8 | 46.2 0.1 |
| Max | 54.2 | 100 | 51.2 | 2.7 | - | 5.1 | 0.00 | 0.00 | 54.2 | 48.6 | ||
| Avg | 49.9 | 87 | 40.0 | 0.9 | - | 2.4 | 0.00 | - | - | - | ||
| Min | 47.4 | 0 | -68.2 | 0.0 | - | 0.0 | 0.00 | 0.00 | 48.1 | 42.5 |
| Station | Date | Time | Temp (°F) | RH (%) | Dew Pt (°F) | Wind Spd (mph) | Wind Dir (°) | Wind Gust (mph) | Latest Rain (In) | Daily Rain (In) | Daily Min Temp (°F) | Daily Max Temp (°F) |
|---|---|---|---|---|---|---|---|---|---|---|---|---|
| Upper Rincon Valley | 5/4/26 | 0745 | 48.2 1.1 | 94 1 | 46.6 1.4 | 0.0 2.5 | N | 0 | 0.0 5.1 | 0.00 | 0.00 | 45.5 3.1 | 49.2 0.2 |
| Lower Bennett Valley | 5/4/26 | 0745 | 48.6 3.8 | 100 11 | 48.6 0.6 | 0.7 1.5 | SW | 216 | 2.5 2.0 | 0.00 | 0.00 | 40.1 11.6 | 49.9 2.7 |
| Kenwood (Wildwood) | 5/4/26 | 0745 | 49.2 3.8 | 93 9 | 47.4 1.2 | 1.7 0.2 | N | 5 | 2.5 1.3 | 0.00 | 0.00 | 43.9 7.7 | 51.1 2.1 |
| Crane Creek (Ranch 62) | 5/4/26 | 0745 | 49.4 3.5 | 98 9 | 48.7 0.8 | 0.5 1.5 | ESE | 115 | 1.8 3.0 | 0.00 | 0.00 | 45.5 6.4 | 49.6 3.4 |
| Rohnert Park-West (Stony Point) | 5/4/26 | 0745 | 51.4 1.5 | 98 6 | 50.8 0.1 | 0.0 3.8 | N | 0 | 0.0 7.7 | 0.00 | 0.00 | 43.2 9.2 | 51.4 1.8 |
| Rice-Spivak Vineyard | 5/4/26 | 0745 | 51.7 1.0 | - | - | - | - | - | - | - | 41.3 10.5 | 52.1 0.8 |
| Cartograph Wines Base | 5/4/26 | 0745 | 50.7 1.3 | 99 4 | 50.4 0.1 | 3.1 0.6 | SW | 230 | 5.8 0.4 | 0.00 | 0.00 | 47.5 3.9 | 51.5 0.5 |
| Cartograph Wines Remote | 5/4/26 | 0745 | 53.1 0.2 | - | - | - | - | - | - | - | 46.3 5.8 | 53.1 0.0 |
| Penngrove (Asellus) | 5/4/26 | 0745 | 49.6 3.7 | 98 10 | 49.0 0.9 | 3.2 1.3 | NNW | 346 | 5.1 0.8 | 0.00 | 0.00 | 41.4 10.9 | 49.9 3.5 |
| Sonoma Valley (Bedrock) | 5/4/26 | 0745 | 50.7 2.0 | 89 8 | 47.5 0.4 | - | - | - | 0.00 | 0.00 | 43.0 7.7 | 51.8 1.2 |
| Sonoma-West (Arnold) | 5/4/26 | 0745 | 51.4 3.0 | 94 11 | 49.8 0.5 | 1.5 1.3 | ENE | 65 | 2.8 2.7 | 0.00 | 0.00 | 42.1 11.0 | 52.9 1.6 |
| Sonoma Valley HS | 5/4/26 | 0745 | 49.9 4.1 | 100 10 | 49.9 1.4 | 1.2 1.0 | ENE | 67 | 2.4 1.7 | 0.00 | 0.00 | 43.5 9.6 | 51.5 2.6 |
| Sonoma East (Bundschu01) | 5/4/26 | 0745 | 50.8 3.3 | 95 10 | 49.3 0.4 | 0.2 2.5 | N | 8 | 1.3 5.0 | 0.00 | 0.00 | 40.3 12.8 | 52.2 2.1 |
| Sonoma-SE (Napoli) | 5/4/26 | 0745 | 50.1 3.9 | 95 10 | 48.7 1.0 | 0.0 0.0 | N | 0 | 0.0 1.4 | 0.00 | 0.00 | 42.0 11.1 | 50.9 3.5 |
| Schellville (Sasaki) | 2/7/26 | 1900 | 53.4 2.2 | 88 10 | 49.9 1.0 | 3.3 1.8 | SW | 225 | 5.8 4.0 | 0.00 | 0.00 | 47.0 0.8 | 62.8 8.4 |
| Petaluma (Ranch 10) | 5/4/26 | 0745 | 48.7 5.5 | 100 16 | 48.7 0.7 | 1.5 2.1 | NW | 318 | 3.3 3.8 | 0.00 | 0.00 | 41.0 12.5 | 52.1 2.3 |
| Carneros (Ranch 71) | 5/4/26 | 0745 | 51.3 1.8 | 90 3 | 48.6 1.0 | 3.5 1.7 | WNW | 299 | 6.5 3.3 | 0.00 | 0.00 | 47.1 4.9 | 52.4 0.9 |
| Ricci Vineyards (Carneros) | 5/4/26 | 0745 | 50.8 3.4 | 95 12 | 49.3 0.1 | 2.2 1.7 | NNW | 343 | 4.3 2.9 | 0.00 | 0.00 | 42.0 10.9 | 53.5 0.8 |
| Carneros Upper (Ranch 81) | 5/4/26 | 0745 | 51.2 2.0 | 89 4 | 48.1 0.6 | 4.1 2.8 | W | 271 | 6.6 3.5 | - | - | 46.7 5.4 | 52.2 1.0 |
| Carneros Lower (Ranch 81) | 5/4/26 | 0745 | 52.6 1.8 | 92 6 | 50.2 0.1 | 1.4 0.7 | NW | 308 | 4.5 0.1 | 0.00 | 0.00 | 42.6 10.4 | 52.6 1.8 |
| Max | 53.1 | 100 | 50.8 | 4.1 | - | 6.6 | 0.00 | 0.00 | 47.5 | 53.5 | ||
| Avg | 50.5 | 95 | 48.9 | 1.5 | - | 3.1 | 0.00 | - | - | - | ||
| Min | 48.2 | 89 | 46.6 | 0.0 | - | 0.0 | 0.00 | 0.00 | 40.1 | 49.2 |